Find Local Weather

World > North America > United States > New York

Haines Falls, New York Regional Weather

Lat: 42.20N, Lon: 74.1W
Wx Zone: NYZ058
Feedback
Expires:201804251700;;018277
ASUS41 KALY 251610
RWRALY

NEW YORK STATE HOURLY WEATHER ROUNDUP
NATIONAL WEATHER SERVICE ALBANY NY
1200 PM EDT WED APR 25 2018

NOTE: "FAIR" INDICATES FEW OR NO CLOUDS BELOW 12,000 FEET WITH NO
SIGNIFICANT WEATHER AND/OR NO OBSTRUCTIONS TO VISIBILITY.


NYZ032-033-038>043-046>054-057>066-NYZ062>081-082-084-251700-
EAST

  
CITY           SKY/WX    TMP DP  RH WIND       PRES   REMARKS
ALBANY         LGT RAIN  53  50  89 CALM      29.91F FOG              
GLENS FALLS    RAIN      51  51 100 NE8       29.92F FOG              
POUGHKEEPSIE   LGT RAIN  54  52  93 N7        29.86F VSB 1            
NEWBURGH       LGT RAIN  55  55 100 NE7       29.87F FOG              
MONTGOMERY     LGT RAIN  53  51  93 N10       29.84F FOG              
WHITE PLAINS   LGT RAIN  54  54 100 E9        29.83F VSB 3/4          
ISLIP          LGT RAIN  57  57 100 E17G25    29.85F FOG              
NEW YORK CITY  CLOUDY    60  56  86 SE17G26   29.81F                  
CENTRAL PARK   CLOUDY    59  57  93 SE7       29.85F                  
$$


SKY/WX - Weather  TMP - Temperature  DP - Dewpoint  RH - Relative Humidity
WIND - Wind Direction/Speed PRES - Barometric Pressure